Weather in Orgakin

Russia / Republic of Kalmykia     46°06′18″N   44°25′47″E
temp.,
°C
wind,
m/s
gust,
m/s
humid.,
%
clouds,
%
prec.,
mm/h
press.,
hPa
HPBL,
m
18 april, sun
sun1800:00+10w3578100 0.1 1022276
03:00+10w2277100 0.1 1021151
06:00+10n1176100 0.0 102148
09:00+10sw1178100 0.5 1020196
12:00+11ese2382100 0.6 1019314
15:00+14e2270100 0.6 1018738
18:00+13ese2283100 0.5 101858
21:00+12ese3387100 0.6 101859
19 april, mon
mon1900:00+12sse128892 0.4 101840
03:00+11se2391100 0.4 101766
06:00+11s3589100 0.4 1017148
09:00+13s4678100 1.1 1017346
12:00+15ssw5785100 0.8 1016583
15:00+15sw4688100 1.1 1016448
18:00+15ssw4693100 0.5 1016333
21:00+13ssw2498100 2.8 1016141
20 april, tue
tue2000:00+13se3497100 1.1 1015128
03:00+12ese4992100 1.2 1014268
06:00+12ese71583100 0.0 1011450
09:00+15ese111871100 0.1 1009732
12:00+20se121549100 0.0 10081066
15:00+21ese101451100 0.1 10071063
18:00+17ese111755100 0.1 1007677
21:00+15sse4865100 0.5 1012207
21 april, wed
wed2100:00+13sw2272100 0.0 101320
03:00+14nw61084100 0.4 1014440
06:00+13w3589100 0.6 1017206
09:00+11w3584100 1.9 1019626
12:00+12nw4668100 1.6 1020755
15:00+11w4582100 1.8 1022389
18:00+9e2391100 7.8 1022164
21:00+9wsw1191100 8.4 102456
22 april, thu
thu2200:00+9wnw2292100 0.0 102444
03:00+8nw2391100 0.0 102429
06:00+9ne1387100 0.0 102588
09:00+13nne4571100 0.0 1024561
12:00+14nne4564100 0.0 1024906
15:00+17ne2353100 0.0 10241412
18:00+14ene467049 0.2 1024221
21:00+11ne228162 0.2 102419